This demonstration page uses our WeatherBlox Daily Observations layout. Learn more.

Hourly Observations for March 19, 2020

Temp ( °F °C ) Dew Point ( °F °C ) Humidity (%) Winds ( mph kmh ) Pressure ( in mb ) Visibility ( mi km ) Precip ( " mm )
7:55 am 07:55 Cloudy 46 8 46 8 100 100 S 3 6 30.19 1022 3 4.82802 0 0
8:15 am 08:15 Cloudy 46 8 46 8 100 100 S 5 7 30.19 1022 3 4.82802 0 0
8:35 am 08:35 Cloudy 46 8 46 8 100 100 Calm 30.2 1023 3 4.82802 0 0
8:55 am 08:55 Cloudy 46 8 46 8 100 100 Calm 30.21 1023 3 4.82802 0 0
9:15 am 09:15 Cloudy 48 9 48 9 100 100 Calm 30.22 1023 4 6.43736 0 0
9:35 am 09:35 Cloudy 48 9 48 9 100 100 Calm 30.22 1023 4 6.43736 0 0
9:55 am 09:55 Cloudy 48 9 48 9 100 100 NE 5 7 30.22 1023 5 8.0467 0 0
10:15 am 10:15 Cloudy 50 10 50 10 100 100 Calm 30.22 1023 5 8.0467 0 0
10:35 am 10:35 Cloudy 50 10 50 10 100 100 Calm 30.23 1024 5 8.0467 0 0
10:55 am 10:55 Cloudy 50 10 50 10 100 100 Calm 30.23 1024 5 8.0467 0 0
11:15 am 11:15 Cloudy 50 10 50 10 100 100 Calm 30.23 1024 5 8.0467 0 0
11:35 am 11:35 Cloudy 50 10 50 10 100 100 Calm 30.23 1024 7 11.26538 0 0
11:55 am 11:55 Cloudy 52 11 52 11 100 100 Calm 30.22 1024 7 11.26538 0 0
12:15 pm 12:15 Cloudy 54 12 52 11 94 94 Calm 30.21 1023 10 16.0934 0 0
12:35 pm 12:35 Mostly Cloudy 54 12 54 12 100 100 Calm 30.21 1023 10 16.0934 0 0
12:55 pm 12:55 Partly Cloudy 55 13 54 12 94 94 Calm 30.2 1023 10 16.0934 0 0
1:15 pm 13:15 Sunny 59 15 55 13 88 88 Calm 30.2 1023 10 16.0934 0 0
1:35 pm 13:35 Sunny 59 15 55 13 88 88 Calm 30.19 1022 10 16.0934 0 0
1:55 pm 13:55 Sunny 61 16 55 13 83 83 Calm 30.19 1022 10 16.0934 0 0
2:15 pm 14:15 Sunny 61 16 55 13 83 83 Calm 30.17 1022 10 16.0934 0 0
2:35 pm 14:35 Sunny 63 17 55 13 77 77 Calm 30.16 1021 10 16.0934 0 0
2:55 pm 14:55 Sunny 63 17 55 13 77 77 ENE 3 6 30.15 1021 10 16.0934 0 0
3:55 pm 15:55 Sunny 64 18 57 14 78 78 ESE 3 6 30.13 1020 10 16.0934 0 0
4:15 pm 16:15 Sunny 64 18 57 14 78 78 SE 5 7 30.13 1020 10 16.0934 0 0
4:35 pm 16:35 Sunny 64 18 55 13 73 73 ESE 5 7 30.14 1021 10 16.0934 0 0
4:55 pm 16:55 Sunny 66 19 57 14 73 73 Calm 30.14 1021 10 16.0934 0 0
5:15 pm 17:15 Partly Cloudy 66 19 57 14 73 73 ENE 6 9 30.14 1021 10 16.0934 0 0
5:35 pm 17:35 Partly Cloudy 66 19 57 14 73 73 E 6 9 30.13 1020 10 16.0934 0 0
5:55 pm 17:55 Partly Cloudy 66 19 57 14 73 73 E 7 11 30.13 1020 10 16.0934 0 0
6:15 pm 18:15 Sunny 66 19 57 14 73 73 E 3 6 30.13 1020 10 16.0934 0 0
6:35 pm 18:35 Sunny 66 19 57 14 73 73 E 6 9 30.13 1020 10 16.0934 0 0
6:55 pm 18:55 Sunny 66 19 57 14 73 73 E 3 6 30.13 1020 10 16.0934 0 0
7:15 pm 19:15 Partly Cloudy 64 18 57 14 78 78 E 3 6 30.13 1020 10 16.0934 0 0
7:35 pm 19:35 Cloudy 64 18 59 15 83 83 ENE 3 6 30.14 1021 10 16.0934 0 0
7:55 pm 19:55 Cloudy 64 18 59 15 83 83 ENE 5 7 30.15 1021 10 16.0934 0 0
8:15 pm 20:15 Cloudy 63 17 59 15 88 88 E 6 9 30.16 1021 10 16.0934 0 0
8:35 pm 20:35 Cloudy 63 17 59 15 88 88 ESE 7 11 30.16 1021 10 16.0934 0 0
8:55 pm 20:55 Cloudy 63 17 59 15 88 88 ESE 6 9 30.16 1021 10 16.0934 0 0
9:15 pm 21:15 Cloudy 61 16 59 15 94 94 E 6 9 30.16 1021 10 16.0934 0 0
9:35 pm 21:35 Cloudy 61 16 59 15 94 94 E 5 7 30.15 1021 10 16.0934 0 0
9:55 pm 21:55 Mostly Cloudy 59 15 57 14 94 94 ENE 3 6 30.16 1021 10 16.0934 0 0
10:15 pm 22:15 Partly Cloudy 59 15 55 13 88 88 E 5 7 30.16 1021 10 16.0934 0 0
10:35 pm 22:35 Partly Cloudy 59 15 55 13 88 88 ENE 5 7 30.16 1021 10 16.0934 0 0
10:55 pm 22:55 Partly Cloudy 57 14 55 13 94 94 ENE 5 7 30.16 1021 10 16.0934 0 0
11:15 pm 23:15 Partly Cloudy 55 13 55 13 100 100 ENE 3 6 30.15 1021 10 16.0934 0 0
11:35 pm 23:35 Clear 55 13 55 13 100 100 E 5 7 30.14 1021 7 11.26538 0 0
11:55 pm 23:55 Mostly Cloudy 55 13 55 13 100 100 ENE 5 7 30.14 1021 7 11.26538 0 0

Powered by AerisWeather